Simultaneous Nadir Overpasses (SNOs) Predictions

Prediction of SNOs between GOES-17 and METOP-B Satellite Orbit:

Table of predicted SNOs for the next 14.0 days since TLE Epoch: 10/26/2024
Index Date Time (GOES-17) GOES-17 Lat,Lon METOP-B Lat,Lon Distance(km) Time Diff (sec)
1 10/26/2024 03:59:29 0.01,-104.66 0.88,-100.74 447.31 14
2 10/27/2024 16:17:09 -0.01,-104.73 0.11,-105.30 64.19 80
3 10/30/2024 04:18:00 0.01,-104.68 -0.06,-104.87 22.82 80
4 11/01/2024 16:16:03 -0.02,-104.75 -0.07,-104.43 36.02 80
5 11/03/2024 04:34:57 0.01,-104.70 -0.95,-109.02 492.50 80
6 11/04/2024 04:11:33 0.00,-104.70 0.16,-104.01 77.88 80
7 11/05/2024 16:30:19 0.01,-104.75 0.85,-108.57 434.41 80
8 11/06/2024 16:12:15 0.02,-104.75 -0.27,-103.56 136.07 80
9 11/08/2024 04:31:08 -0.02,-104.70 -0.79,-108.14 392.35 80
